owner,sensor,date,latitude,longitude,vertical_datum,mass_concentration_of_oxygen_in_sea_water,qcFlag 
SCCF RECON,ioos:station:SCCF:12:1,2008-09-01T00:00:00Z,26.4966,-82.1479,2.436,4.01,1111122 
SCCF RECON,ioos:station:SCCF:12:1,2008-09-01T01:00:00Z,26.4966,-82.1479,2.364,4.43,1111122 
SCCF RECON,ioos:station:SCCF:12:1,2008-09-01T02:00:00Z,26.4966,-82.1479,2.385,4.62,1111122 
SCCF RECON,ioos:station:SCCF:12:1,2008-09-01T03:00:00Z,26.4966,-82.1479,2.483,4.32,1111122 
SCCF RECON,ioos:station:SCCF:12:1,2008-09-01T04:00:00Z,26.4966,-82.1479,2.596,4.39,1111122 
SCCF RECON,ioos:station:SCCF:12:1,2008-09-01T05:00:00Z,26.4966,-82.1479,2.661,4.4,1111122 
SCCF RECON,ioos:station:SCCF:12:1,2008-09-01T06:00:00Z,26.4966,-82.1479,2.63,3.69,1111122 
SCCF RECON,ioos:station:SCCF:12:1,2008-09-01T07:00:00Z,26.4966,-82.1479,2.537,3.91,1111122 
SCCF RECON,ioos:station:SCCF:12:1,2008-09-01T08:00:00Z,26.4966,-82.1479,2.44,4.43,1111122 
SCCF RECON,ioos:station:SCCF:12:1,2008-09-01T09:00:00Z,26.4966,-82.1479,2.33,4.31,1111122 
SCCF RECON,ioos:station:SCCF:12:1,2008-09-01T10:00:00Z,26.4966,-82.1479,2.218,4.41,1111122 
SCCF RECON,ioos:station:SCCF:12:1,2008-09-01T11:00:00Z,26.4966,-82.1479,2.119,4.51,1111122 
SCCF RECON,ioos:station:SCCF:12:1,2008-09-01T12:00:00Z,26.4966,-82.1479,2.03,4.39,1111122 
SCCF RECON,ioos:station:SCCF:12:1,2008-09-01T13:00:00Z,26.4966,-82.1479,1.962,4.47,1111122 
SCCF RECON,ioos:station:SCCF:12:1,2008-09-01T14:00:00Z,26.4966,-82.1479,1.97,4.19,1111122 
SCCF RECON,ioos:station:SCCF:12:1,2008-09-01T15:00:00Z,26.4966,-82.1479,2.125,4.07,1111122 
SCCF RECON,ioos:station:SCCF:12:1,2008-09-01T16:00:00Z,26.4966,-82.1479,2.311,4.87,1111122 
SCCF RECON,ioos:station:SCCF:12:1,2008-09-01T17:00:00Z,26.4966,-82.1479,2.45,3.72,1111122 
SCCF RECON,ioos:station:SCCF:12:1,2008-09-01T18:00:00Z,26.4966,-82.1479,2.539,4.9,1111122 
SCCF RECON,ioos:station:SCCF:12:1,2008-09-01T19:00:00Z,26.4966,-82.1479,2.58,4.07,1111122 
SCCF RECON,ioos:station:SCCF:12:1,2008-09-01T20:00:00Z,26.4966,-82.1479,2.578,4.12,1111122 
SCCF RECON,ioos:station:SCCF:12:1,2008-09-01T21:00:00Z,26.4966,-82.1479,2.51,4.2,1111122 
SCCF RECON,ioos:station:SCCF:12:1,2008-09-01T22:00:00Z,26.4966,-82.1479,2.411,4.13,1111122 
SCCF RECON,ioos:station:SCCF:12:1,2008-09-01T23:00:00Z,26.4966,-82.1479,2.31,3.77,1111122 
SCCF RECON,ioos:station:SCCF:12:1,2008-09-02T00:00:00Z,26.4966,-82.1479,2.221,4.58,1111122 
SCCF RECON,ioos:station:SCCF:12:1,2008-09-02T01:00:00Z,26.4966,-82.1479,2.169,5.03,1111122 
SCCF RECON,ioos:station:SCCF:12:1,2008-09-02T02:00:00Z,26.4966,-82.1479,2.154,4.6,1111122 
SCCF RECON,ioos:station:SCCF:12:1,2008-09-02T03:00:00Z,26.4966,-82.1479,2.225,4.58,1111122 
SCCF RECON,ioos:station:SCCF:12:1,2008-09-02T04:00:00Z,26.4966,-82.1479,2.35,4.53,1111122 
SCCF RECON,ioos:station:SCCF:12:1,2008-09-02T05:00:00Z,26.4966,-82.1479,2.483,4.14,1111122 
SCCF RECON,ioos:station:SCCF:12:1,2008-09-02T06:00:00Z,26.4966,-82.1479,2.55,3.98,1111122 
SCCF RECON,ioos:station:SCCF:12:1,2008-09-02T07:00:00Z,26.4966,-82.1479,2.55,4.31,1111122 
SCCF RECON,ioos:station:SCCF:12:1,2008-09-02T08:00:00Z,26.4966,-82.1479,2.48,4.57,1111122 
SCCF RECON,ioos:station:SCCF:12:1,2008-09-02T09:00:00Z,26.4966,-82.1479,2.364,4.55,1111122 
SCCF RECON,ioos:station:SCCF:12:1,2008-09-02T10:00:00Z,26.4966,-82.1479,2.243,4.53,1111122 
SCCF RECON,ioos:station:SCCF:12:1,2008-09-02T11:00:00Z,26.4966,-82.1479,2.129,4.26,1111122 
SCCF RECON,ioos:station:SCCF:12:1,2008-09-02T12:00:00Z,26.4966,-82.1479,2.029,4.51,1111122 
SCCF RECON,ioos:station:SCCF:12:1,2008-09-02T13:00:00Z,26.4966,-82.1479,1.933,4.71,1111122 
SCCF RECON,ioos:station:SCCF:12:1,2008-09-02T14:00:00Z,26.4966,-82.1479,1.859,4.09,1111122 
SCCF RECON,ioos:station:SCCF:12:1,2008-09-02T15:00:00Z,26.4966,-82.1479,1.875,4.45,1111122 
SCCF RECON,ioos:station:SCCF:12:1,2008-09-02T16:00:00Z,26.4966,-82.1479,2.022,4.42,1111122 
SCCF RECON,ioos:station:SCCF:12:1,2008-09-02T17:00:00Z,26.4966,-82.1479,2.188,4.32,1111122 
SCCF RECON,ioos:station:SCCF:12:1,2008-09-02T18:00:00Z,26.4966,-82.1479,2.299,4.64,1111122 
SCCF RECON,ioos:station:SCCF:12:1,2008-09-02T19:00:00Z,26.4966,-82.1479,2.354,5.07,1111122 
SCCF RECON,ioos:station:SCCF:12:1,2008-09-02T20:00:00Z,26.4966,-82.1479,2.377,5.16,1111122 
SCCF RECON,ioos:station:SCCF:12:1,2008-09-02T21:00:00Z,26.4966,-82.1479,2.353,4.78,1111122 
SCCF RECON,ioos:station:SCCF:12:1,2008-09-02T22:00:00Z,26.4966,-82.1479,2.306,5.29,1111122 
SCCF RECON,ioos:station:SCCF:12:1,2008-09-02T23:00:00Z,26.4966,-82.1479,2.249,4.83,1111122 
SCCF RECON,ioos:station:SCCF:12:1,2008-09-03T00:00:00Z,26.4966,-82.1479,2.18,4.85,1111122 
SCCF RECON,ioos:station:SCCF:12:1,2008-09-03T01:00:00Z,26.4966,-82.1479,2.129,4.64,1111122 
SCCF RECON,ioos:station:SCCF:12:1,2008-09-03T02:00:00Z,26.4966,-82.1479,2.077,4.65,1111122 
SCCF RECON,ioos:station:SCCF:12:1,2008-09-03T03:00:00Z,26.4966,-82.1479,2.114,4.48,1111122 
SCCF RECON,ioos:station:SCCF:12:1,2008-09-03T04:00:00Z,26.4966,-82.1479,2.24,4.58,1111122 
SCCF RECON,ioos:station:SCCF:12:1,2008-09-03T05:00:00Z,26.4966,-82.1479,2.393,4.11,1111122 
SCCF RECON,ioos:station:SCCF:12:1,2008-09-03T06:00:00Z,26.4966,-82.1479,2.49,4.34,1111122 
SCCF RECON,ioos:station:SCCF:12:1,2008-09-03T07:00:00Z,26.4966,-82.1479,2.531,4.28,1111122 
SCCF RECON,ioos:station:SCCF:12:1,2008-09-03T08:00:00Z,26.4966,-82.1479,2.529,4.45,1111122 
SCCF RECON,ioos:station:SCCF:12:1,2008-09-03T09:00:00Z,26.4966,-82.1479,2.47,4.55,1111122 
SCCF RECON,ioos:station:SCCF:12:1,2008-09-03T10:00:00Z,26.4966,-82.1479,2.385,4.61,1111122 
SCCF RECON,ioos:station:SCCF:12:1,2008-09-03T11:00:00Z,26.4966,-82.1479,2.279,4.57,1111122 
SCCF RECON,ioos:station:SCCF:12:1,2008-09-03T12:00:00Z,26.4966,-82.1479,2.16,4.15,1111122 
SCCF RECON,ioos:station:SCCF:12:1,2008-09-03T13:00:00Z,26.4966,-82.1479,2.049,4.35,1111122 
SCCF RECON,ioos:station:SCCF:12:1,2008-09-03T14:00:00Z,26.4966,-82.1479,1.969,4.48,1111122 
SCCF RECON,ioos:station:SCCF:12:1,2008-09-03T15:00:00Z,26.4966,-82.1479,1.939,4.6,1111122 
SCCF RECON,ioos:station:SCCF:12:1,2008-09-03T16:00:00Z,26.4966,-82.1479,2.004,4.7,1111122 
SCCF RECON,ioos:station:SCCF:12:1,2008-09-03T17:00:00Z,26.4966,-82.1479,2.146,4.67,1111122 
SCCF RECON,ioos:station:SCCF:12:1,2008-09-03T18:00:00Z,26.4966,-82.1479,2.28,4.13,1111122 
SCCF RECON,ioos:station:SCCF:12:1,2008-09-03T19:00:00Z,26.4966,-82.1479,2.368,4.75,1111122 
SCCF RECON,ioos:station:SCCF:12:1,2008-09-03T20:00:00Z,26.4966,-82.1479,2.384,4.77,1111122 
SCCF RECON,ioos:station:SCCF:12:1,2008-09-03T21:00:00Z,26.4966,-82.1479,2.381,5.6,1111122 
SCCF RECON,ioos:station:SCCF:12:1,2008-09-03T22:00:00Z,26.4966,-82.1479,2.36,4.6,1111122 
SCCF RECON,ioos:station:SCCF:12:1,2008-09-03T23:00:00Z,26.4966,-82.1479,2.32,4.41,1111122 
SCCF RECON,ioos:station:SCCF:12:1,2008-09-04T00:00:00Z,26.4966,-82.1479,2.268,6.69,1111122 
SCCF RECON,ioos:station:SCCF:12:1,2008-09-04T01:00:00Z,26.4966,-82.1479,2.19,6.39,1111122 
SCCF RECON,ioos:station:SCCF:12:1,2008-09-04T02:00:00Z,26.4966,-82.1479,2.177,4.43,1111122 
SCCF RECON,ioos:station:SCCF:12:1,2008-09-04T03:00:00Z,26.4966,-82.1479,2.212,4.38,1111122 
SCCF RECON,ioos:station:SCCF:12:1,2008-09-04T04:00:00Z,26.4966,-82.1479,2.3,4.55,1111122 
SCCF RECON,ioos:station:SCCF:12:1,2008-09-04T05:00:00Z,26.4966,-82.1479,2.42,4.31,1111122 
SCCF RECON,ioos:station:SCCF:12:1,2008-09-04T06:00:00Z,26.4966,-82.1479,2.52,3.95,1111122 
SCCF RECON,ioos:station:SCCF:12:1,2008-09-04T07:00:00Z,26.4966,-82.1479,2.57,4.15,1111122 
SCCF RECON,ioos:station:SCCF:12:1,2008-09-04T08:00:00Z,26.4966,-82.1479,2.57,4.36,1111122 
SCCF RECON,ioos:station:SCCF:12:1,2008-09-04T09:00:00Z,26.4966,-82.1479,2.521,4.73,1111122 
SCCF RECON,ioos:station:SCCF:12:1,2008-09-04T10:00:00Z,26.4966,-82.1479,2.461,4.64,1111122 
SCCF RECON,ioos:station:SCCF:12:1,2008-09-04T11:00:00Z,26.4966,-82.1479,2.38,4.68,1111122 
SCCF RECON,ioos:station:SCCF:12:1,2008-09-04T12:00:00Z,26.4966,-82.1479,2.27,4.54,1111122 
SCCF RECON,ioos:station:SCCF:12:1,2008-09-04T13:00:00Z,26.4966,-82.1479,2.158,4.36,1111122 
SCCF RECON,ioos:station:SCCF:12:1,2008-09-04T14:00:00Z,26.4966,-82.1479,2.079,4.39,1111122 
SCCF RECON,ioos:station:SCCF:12:1,2008-09-04T15:00:00Z,26.4966,-82.1479,2.01,4.42,1111122 
SCCF RECON,ioos:station:SCCF:12:1,2008-09-04T16:00:00Z,26.4966,-82.1479,2.01,4.33,1111122 
SCCF RECON,ioos:station:SCCF:12:1,2008-09-04T17:00:00Z,26.4966,-82.1479,2.085,5.27,1111122 
SCCF RECON,ioos:station:SCCF:12:1,2008-09-04T18:00:00Z,26.4966,-82.1479,2.208,4.06,1111122 
SCCF RECON,ioos:station:SCCF:12:1,2008-09-04T19:00:00Z,26.4966,-82.1479,2.298,5.59,1111122 
SCCF RECON,ioos:station:SCCF:12:1,2008-09-04T20:00:00Z,26.4966,-82.1479,2.342,6.42,1111122 
SCCF RECON,ioos:station:SCCF:12:1,2008-09-04T21:00:00Z,26.4966,-82.1479,2.35,6.4,1111122 
SCCF RECON,ioos:station:SCCF:12:1,2008-09-04T22:00:00Z,26.4966,-82.1479,2.332,5.75,1111122 
SCCF RECON,ioos:station:SCCF:12:1,2008-09-04T23:00:00Z,26.4966,-82.1479,2.292,6.46,1111122 
SCCF RECON,ioos:station:SCCF:12:1,2008-09-05T00:00:00Z,26.4966,-82.1479,2.255,6.78,1111122 
SCCF RECON,ioos:station:SCCF:12:1,2008-09-05T01:00:00Z,26.4966,-82.1479,2.202,6.35,1111122 
SCCF RECON,ioos:station:SCCF:12:1,2008-09-05T02:00:00Z,26.4966,-82.1479,2.168,6.49,1111122 
SCCF RECON,ioos:station:SCCF:12:1,2008-09-05T03:00:00Z,26.4966,-82.1479,2.16,6.34,1111122 
SCCF RECON,ioos:station:SCCF:12:1,2008-09-05T04:00:00Z,26.4966,-82.1479,2.183,6.18,1111122 
SCCF RECON,ioos:station:SCCF:12:1,2008-09-05T05:00:00Z,26.4966,-82.1479,2.262,5.45,1111122 
SCCF RECON,ioos:station:SCCF:12:1,2008-09-05T06:00:00Z,26.4966,-82.1479,2.351,4.88,1111122 
SCCF RECON,ioos:station:SCCF:12:1,2008-09-05T07:00:00Z,26.4966,-82.1479,2.461,4.86,1111122 
SCCF RECON,ioos:station:SCCF:12:1,2008-09-05T08:00:00Z,26.4966,-82.1479,2.527,4.61,1111122 
SCCF RECON,ioos:station:SCCF:12:1,2008-09-05T09:00:00Z,26.4966,-82.1479,2.536,4.14,1111122 
SCCF RECON,ioos:station:SCCF:12:1,2008-09-05T10:00:00Z,26.4966,-82.1479,2.504,4.33,1111122 
SCCF RECON,ioos:station:SCCF:12:1,2008-09-05T11:00:00Z,26.4966,-82.1479,2.438,4.45,1111122 
SCCF RECON,ioos:station:SCCF:12:1,2008-09-05T12:00:00Z,26.4966,-82.1479,2.353,4.23,1111122 
SCCF RECON,ioos:station:SCCF:12:1,2008-09-05T13:00:00Z,26.4966,-82.1479,2.257,4.48,1111122 
SCCF RECON,ioos:station:SCCF:12:1,2008-09-05T14:00:00Z,26.4966,-82.1479,2.182,4.46,1111122 
SCCF RECON,ioos:station:SCCF:12:1,2008-09-05T15:00:00Z,26.4966,-82.1479,2.128,4.62,1111122 
SCCF RECON,ioos:station:SCCF:12:1,2008-09-05T16:00:00Z,26.4966,-82.1479,2.093,4.93,1111122 
SCCF RECON,ioos:station:SCCF:12:1,2008-09-05T17:00:00Z,26.4966,-82.1479,2.096,4.52,1111122 
SCCF RECON,ioos:station:SCCF:12:1,2008-09-05T18:00:00Z,26.4966,-82.1479,2.158,5.0,1111122 
SCCF RECON,ioos:station:SCCF:12:1,2008-09-05T19:00:00Z,26.4966,-82.1479,2.254,5.26,1111122 
SCCF RECON,ioos:station:SCCF:12:1,2008-09-05T20:00:00Z,26.4966,-82.1479,2.317,5.5,1111122 
SCCF RECON,ioos:station:SCCF:12:1,2008-09-05T21:00:00Z,26.4966,-82.1479,2.356,5.57,1111122 
SCCF RECON,ioos:station:SCCF:12:1,2008-09-05T22:00:00Z,26.4966,-82.1479,2.383,5.74,1111122 
SCCF RECON,ioos:station:SCCF:12:1,2008-09-05T23:00:00Z,26.4966,-82.1479,2.37,5.55,1111122 
SCCF RECON,ioos:station:SCCF:12:1,2008-09-06T00:00:00Z,26.4966,-82.1479,2.337,5.29,1111122 
SCCF RECON,ioos:station:SCCF:12:1,2008-09-06T01:00:00Z,26.4966,-82.1479,2.297,4.95,1111122 
SCCF RECON,ioos:station:SCCF:12:1,2008-09-06T02:00:00Z,26.4966,-82.1479,2.303,5.14,1111122 
SCCF RECON,ioos:station:SCCF:12:1,2008-09-06T03:00:00Z,26.4966,-82.1479,2.337,4.85,1111122 
SCCF RECON,ioos:station:SCCF:12:1,2008-09-06T04:00:00Z,26.4966,-82.1479,2.39,4.93,1111122 
SCCF RECON,ioos:station:SCCF:12:1,2008-09-06T05:00:00Z,26.4966,-82.1479,2.42,4.81,1111122 
SCCF RECON,ioos:station:SCCF:12:1,2008-09-06T06:00:00Z,26.4966,-82.1479,2.47,4.61,1111122 
SCCF RECON,ioos:station:SCCF:12:1,2008-09-06T07:00:00Z,26.4966,-82.1479,2.54,4.35,1111122 
SCCF RECON,ioos:station:SCCF:12:1,2008-09-06T08:00:00Z,26.4966,-82.1479,2.59,4.18,1111122 
SCCF RECON,ioos:station:SCCF:12:1,2008-09-06T09:00:00Z,26.4966,-82.1479,2.61,3.75,1111122 
SCCF RECON,ioos:station:SCCF:12:1,2008-09-06T10:00:00Z,26.4966,-82.1479,2.59,3.74,1111122 
SCCF RECON,ioos:station:SCCF:12:1,2008-09-06T11:00:00Z,26.4966,-82.1479,2.53,3.92,1111122 
SCCF RECON,ioos:station:SCCF:12:1,2008-09-06T12:00:00Z,26.4966,-82.1479,2.46,3.59,1111122 
SCCF RECON,ioos:station:SCCF:12:1,2008-09-06T13:00:00Z,26.4966,-82.1479,2.37,3.42,1111122 
SCCF RECON,ioos:station:SCCF:12:1,2008-09-06T14:00:00Z,26.4966,-82.1479,2.28,3.81,1111122 
SCCF RECON,ioos:station:SCCF:12:1,2008-09-06T15:00:00Z,26.4966,-82.1479,2.191,4.01,1111122 
SCCF RECON,ioos:station:SCCF:12:1,2008-09-06T16:00:00Z,26.4966,-82.1479,2.105,4.0,1111122 
SCCF RECON,ioos:station:SCCF:12:1,2008-09-06T17:00:00Z,26.4966,-82.1479,2.06,4.65,1111122 
SCCF RECON,ioos:station:SCCF:12:1,2008-09-06T18:00:00Z,26.4966,-82.1479,2.09,4.56,1111122 
SCCF RECON,ioos:station:SCCF:12:1,2008-09-06T19:00:00Z,26.4966,-82.1479,2.168,4.94,1111122 
SCCF RECON,ioos:station:SCCF:12:1,2008-09-06T20:00:00Z,26.4966,-82.1479,2.239,5.32,1111122 
SCCF RECON,ioos:station:SCCF:12:1,2008-09-06T21:00:00Z,26.4966,-82.1479,2.294,6.78,1111122 
SCCF RECON,ioos:station:SCCF:12:1,2008-09-06T22:00:00Z,26.4966,-82.1479,2.338,6.07,1111122 
SCCF RECON,ioos:station:SCCF:12:1,2008-09-06T23:00:00Z,26.4966,-82.1479,2.37,6.35,1111122 
SCCF RECON,ioos:station:SCCF:12:1,2008-09-07T00:00:00Z,26.4966,-82.1479,2.39,7.43,1111122 
SCCF RECON,ioos:station:SCCF:12:1,2008-09-07T01:00:00Z,26.4966,-82.1479,2.408,6.86,1111122 
SCCF RECON,ioos:station:SCCF:12:1,2008-09-07T02:00:00Z,26.4966,-82.1479,2.4,6.53,1111122 
SCCF RECON,ioos:station:SCCF:12:1,2008-09-07T03:00:00Z,26.4966,-82.1479,2.36,5.74,1111122 
SCCF RECON,ioos:station:SCCF:12:1,2008-09-07T04:00:00Z,26.4966,-82.1479,2.38,5.61,1111122 
SCCF RECON,ioos:station:SCCF:12:1,2008-09-07T05:00:00Z,26.4966,-82.1479,2.41,6.69,1111122 
SCCF RECON,ioos:station:SCCF:12:1,2008-09-07T06:00:00Z,26.4966,-82.1479,2.46,6.39,1111122 
SCCF RECON,ioos:station:SCCF:12:1,2008-09-07T07:00:00Z,26.4966,-82.1479,2.508,7.17,1111122 
SCCF RECON,ioos:station:SCCF:12:1,2008-09-07T08:00:00Z,26.4966,-82.1479,2.53,6.13,1111122 
SCCF RECON,ioos:station:SCCF:12:1,2008-09-07T09:00:00Z,26.4966,-82.1479,2.56,4.83,1111122 
SCCF RECON,ioos:station:SCCF:12:1,2008-09-07T10:00:00Z,26.4966,-82.1479,2.56,4.73,1111122 
SCCF RECON,ioos:station:SCCF:12:1,2008-09-07T11:00:00Z,26.4966,-82.1479,2.509,4.89,1111122 
SCCF RECON,ioos:station:SCCF:12:1,2008-09-07T12:00:00Z,26.4966,-82.1479,2.45,5.26,1111122 
SCCF RECON,ioos:station:SCCF:12:1,2008-09-07T13:00:00Z,26.4966,-82.1479,2.375,5.19,1111122 
SCCF RECON,ioos:station:SCCF:12:1,2008-09-07T14:00:00Z,26.4966,-82.1479,2.27,5.23,1111122 
SCCF RECON,ioos:station:SCCF:12:1,2008-09-07T15:00:00Z,26.4966,-82.1479,2.181,5.57,1111122 
SCCF RECON,ioos:station:SCCF:12:1,2008-09-07T16:00:00Z,26.4966,-82.1479,2.1,6.01,1111122 
SCCF RECON,ioos:station:SCCF:12:1,2008-09-07T17:00:00Z,26.4966,-82.1479,2.03,6.46,1111122 
SCCF RECON,ioos:station:SCCF:12:1,2008-09-07T18:00:00Z,26.4966,-82.1479,1.971,6.91,1111122 
SCCF RECON,ioos:station:SCCF:12:1,2008-09-07T19:00:00Z,26.4966,-82.1479,1.96,7.24,1111122 
SCCF RECON,ioos:station:SCCF:12:1,2008-09-07T20:00:00Z,26.4966,-82.1479,2.03,7.13,1111122 
SCCF RECON,ioos:station:SCCF:12:1,2008-09-07T21:00:00Z,26.4966,-82.1479,2.125,6.44,1111122 
SCCF RECON,ioos:station:SCCF:12:1,2008-09-07T22:00:00Z,26.4966,-82.1479,2.19,5.7,1111122 
SCCF RECON,ioos:station:SCCF:12:1,2008-09-07T23:00:00Z,26.4966,-82.1479,2.241,6.47,1111122 
SCCF RECON,ioos:station:SCCF:12:1,2008-09-08T00:00:00Z,26.4966,-82.1479,2.3,6.97,1111122 
SCCF RECON,ioos:station:SCCF:12:1,2008-09-08T01:00:00Z,26.4966,-82.1479,2.36,7.21,1111122 
SCCF RECON,ioos:station:SCCF:12:1,2008-09-08T02:00:00Z,26.4966,-82.1479,2.38,6.93,1111122 
SCCF RECON,ioos:station:SCCF:12:1,2008-09-08T03:00:00Z,26.4966,-82.1479,2.378,6.99,1111122 
SCCF RECON,ioos:station:SCCF:12:1,2008-09-08T04:00:00Z,26.4966,-82.1479,2.36,5.88,1111122 
SCCF RECON,ioos:station:SCCF:12:1,2008-09-08T05:00:00Z,26.4966,-82.1479,2.363,6.32,1111122 
SCCF RECON,ioos:station:SCCF:12:1,2008-09-08T06:00:00Z,26.4966,-82.1479,2.351,6.27,1111122 
SCCF RECON,ioos:station:SCCF:12:1,2008-09-08T07:00:00Z,26.4966,-82.1479,2.333,6.09,1111122 
SCCF RECON,ioos:station:SCCF:12:1,2008-09-08T08:00:00Z,26.4966,-82.1479,2.372,5.77,1111122 
SCCF RECON,ioos:station:SCCF:12:1,2008-09-08T09:00:00Z,26.4966,-82.1479,2.419,5.31,1111122 
SCCF RECON,ioos:station:SCCF:12:1,2008-09-08T10:00:00Z,26.4966,-82.1479,2.46,4.92,1111122 
SCCF RECON,ioos:station:SCCF:12:1,2008-09-08T11:00:00Z,26.4966,-82.1479,2.47,4.91,1111122 
SCCF RECON,ioos:station:SCCF:12:1,2008-09-08T12:00:00Z,26.4966,-82.1479,2.45,4.78,1111122 
SCCF RECON,ioos:station:SCCF:12:1,2008-09-08T13:00:00Z,26.4966,-82.1479,2.409,5.28,1111122 
SCCF RECON,ioos:station:SCCF:12:1,2008-09-08T14:00:00Z,26.4966,-82.1479,2.357,5.4,1111122 
SCCF RECON,ioos:station:SCCF:12:1,2008-09-08T15:00:00Z,26.4966,-82.1479,2.28,6.0,1111122 
SCCF RECON,ioos:station:SCCF:12:1,2008-09-08T16:00:00Z,26.4966,-82.1479,2.186,6.29,1111122 
SCCF RECON,ioos:station:SCCF:12:1,2008-09-08T17:00:00Z,26.4966,-82.1479,2.088,5.92,1111122 
SCCF RECON,ioos:station:SCCF:12:1,2008-09-08T18:00:00Z,26.4966,-82.1479,2.006,6.06,1111122 
SCCF RECON,ioos:station:SCCF:12:1,2008-09-08T19:00:00Z,26.4966,-82.1479,1.976,6.21,1111122 
SCCF RECON,ioos:station:SCCF:12:1,2008-09-08T20:00:00Z,26.4966,-82.1479,1.985,6.28,1111122 
SCCF RECON,ioos:station:SCCF:12:1,2008-09-08T21:00:00Z,26.4966,-82.1479,2.0,7.6,1111122 
SCCF RECON,ioos:station:SCCF:12:1,2008-09-08T22:00:00Z,26.4966,-82.1479,2.055,6.82,1111122 
SCCF RECON,ioos:station:SCCF:12:1,2008-09-08T23:00:00Z,26.4966,-82.1479,2.131,6.97,1111122 
SCCF RECON,ioos:station:SCCF:12:1,2008-09-09T00:00:00Z,26.4966,-82.1479,2.227,6.45,1111122 
SCCF RECON,ioos:station:SCCF:12:1,2008-09-09T01:00:00Z,26.4966,-82.1479,2.319,6.81,1111122 
SCCF RECON,ioos:station:SCCF:12:1,2008-09-09T02:00:00Z,26.4966,-82.1479,2.22,6.08,1111122 
SCCF RECON,ioos:station:SCCF:12:1,2008-09-09T03:00:00Z,26.4966,-82.1479,2.196,5.84,1111122 
SCCF RECON,ioos:station:SCCF:12:1,2008-09-09T04:00:00Z,26.4966,-82.1479,2.247,5.17,1111122 
SCCF RECON,ioos:station:SCCF:12:1,2008-09-09T05:00:00Z,26.4966,-82.1479,2.309,5.73,1111122 
SCCF RECON,ioos:station:SCCF:12:1,2008-09-09T06:00:00Z,26.4966,-82.1479,2.326,4.73,1111122 
SCCF RECON,ioos:station:SCCF:12:1,2008-09-09T07:00:00Z,26.4966,-82.1479,2.256,4.51,1111122 
SCCF RECON,ioos:station:SCCF:12:1,2008-09-09T08:00:00Z,26.4966,-82.1479,2.217,5.13,1111122 
SCCF RECON,ioos:station:SCCF:12:1,2008-09-09T09:00:00Z,26.4966,-82.1479,2.335,4.83,1111122 
SCCF RECON,ioos:station:SCCF:12:1,2008-09-09T10:00:00Z,26.4966,-82.1479,2.375,4.47,1111122 
SCCF RECON,ioos:station:SCCF:12:1,2008-09-09T11:00:00Z,26.4966,-82.1479,2.345,4.89,1111122 
SCCF RECON,ioos:station:SCCF:12:1,2008-09-09T12:00:00Z,26.4966,-82.1479,2.305,4.92,1111122 
SCCF RECON,ioos:station:SCCF:12:1,2008-09-09T13:00:00Z,26.4966,-82.1479,2.329,4.29,1111122 
SCCF RECON,ioos:station:SCCF:12:1,2008-09-09T14:00:00Z,26.4966,-82.1479,2.37,4.94,1111122 
SCCF RECON,ioos:station:SCCF:12:1,2008-09-09T15:00:00Z,26.4966,-82.1479,2.344,5.33,1111122 
SCCF RECON,ioos:station:SCCF:12:1,2008-09-09T16:00:00Z,26.4966,-82.1479,2.261,4.85,1111122 
SCCF RECON,ioos:station:SCCF:12:1,2008-09-09T17:00:00Z,26.4966,-82.1479,2.124,5.27,1111122 
SCCF RECON,ioos:station:SCCF:12:1,2008-09-09T18:00:00Z,26.4966,-82.1479,2.063,5.88,1111122 
SCCF RECON,ioos:station:SCCF:12:1,2008-09-09T19:00:00Z,26.4966,-82.1479,1.966,6.02,1111122 
SCCF RECON,ioos:station:SCCF:12:1,2008-09-09T20:00:00Z,26.4966,-82.1479,1.906,5.84,1111122 
SCCF RECON,ioos:station:SCCF:12:1,2008-09-09T21:00:00Z,26.4966,-82.1479,1.941,6.16,1111122 
SCCF RECON,ioos:station:SCCF:12:1,2008-09-09T22:00:00Z,26.4966,-82.1479,2.032,6.21,1111122 
SCCF RECON,ioos:station:SCCF:12:1,2008-09-09T23:00:00Z,26.4966,-82.1479,2.032,6.07,1111122 
SCCF RECON,ioos:station:SCCF:12:1,2008-09-10T00:00:00Z,26.4966,-82.1479,2.08,5.87,1111122 
SCCF RECON,ioos:station:SCCF:12:1,2008-09-10T01:00:00Z,26.4966,-82.1479,2.199,5.46,1111122 
SCCF RECON,ioos:station:SCCF:12:1,2008-09-10T02:00:00Z,26.4966,-82.1479,2.291,5.45,1111122 
SCCF RECON,ioos:station:SCCF:12:1,2008-09-10T03:00:00Z,26.4966,-82.1479,2.396,5.39,1111122 
SCCF RECON,ioos:station:SCCF:12:1,2008-09-10T04:00:00Z,26.4966,-82.1479,2.468,5.43,1111122 
SCCF RECON,ioos:station:SCCF:12:1,2008-09-10T05:00:00Z,26.4966,-82.1479,2.512,5.06,1111122 
SCCF RECON,ioos:station:SCCF:12:1,2008-09-10T06:00:00Z,26.4966,-82.1479,2.489,5.05,1111122 
SCCF RECON,ioos:station:SCCF:12:1,2008-09-10T07:00:00Z,26.4966,-82.1479,2.469,5.23,1111122 
SCCF RECON,ioos:station:SCCF:12:1,2008-09-10T08:00:00Z,26.4966,-82.1479,2.474,5.14,1111122 
SCCF RECON,ioos:station:SCCF:12:1,2008-09-10T09:00:00Z,26.4966,-82.1479,2.549,5.17,1111122 
SCCF RECON,ioos:station:SCCF:12:1,2008-09-10T10:00:00Z,26.4966,-82.1479,2.651,5.08,1111122 
SCCF RECON,ioos:station:SCCF:12:1,2008-09-10T11:00:00Z,26.4966,-82.1479,2.713,5.06,1111122 
SCCF RECON,ioos:station:SCCF:12:1,2008-09-10T12:00:00Z,26.4966,-82.1479,2.805,5.08,1111122 
SCCF RECON,ioos:station:SCCF:12:1,2008-09-10T13:00:00Z,26.4966,-82.1479,2.831,5.13,1111122 
SCCF RECON,ioos:station:SCCF:12:1,2008-09-10T14:00:00Z,26.4966,-82.1479,2.931,4.86,1111122 
SCCF RECON,ioos:station:SCCF:12:1,2008-09-10T15:00:00Z,26.4966,-82.1479,2.934,4.81,1111122 
SCCF RECON,ioos:station:SCCF:12:1,2008-09-10T16:00:00Z,26.4966,-82.1479,2.875,4.6,1111122 
SCCF RECON,ioos:station:SCCF:12:1,2008-09-10T17:00:00Z,26.4966,-82.1479,2.77,4.28,1111122 
SCCF RECON,ioos:station:SCCF:12:1,2008-09-10T18:00:00Z,26.4966,-82.1479,2.641,4.48,1111122 
SCCF RECON,ioos:station:SCCF:12:1,2008-09-10T19:00:00Z,26.4966,-82.1479,2.558,4.87,1111122 
SCCF RECON,ioos:station:SCCF:12:1,2008-09-10T20:00:00Z,26.4966,-82.1479,2.495,5.17,1111122 
SCCF RECON,ioos:station:SCCF:12:1,2008-09-10T21:00:00Z,26.4966,-82.1479,2.439,5.38,1111122 
SCCF RECON,ioos:station:SCCF:12:1,2008-09-10T22:00:00Z,26.4966,-82.1479,2.431,5.47,1111122 
SCCF RECON,ioos:station:SCCF:12:1,2008-09-10T23:00:00Z,26.4966,-82.1479,2.503,5.15,1111122 
SCCF RECON,ioos:station:SCCF:12:1,2008-09-11T00:00:00Z,26.4966,-82.1479,2.547,4.97,1111122 
SCCF RECON,ioos:station:SCCF:12:1,2008-09-11T01:00:00Z,26.4966,-82.1479,2.583,4.94,1111122 
SCCF RECON,ioos:station:SCCF:12:1,2008-09-11T02:00:00Z,26.4966,-82.1479,2.619,4.91,1111122 
SCCF RECON,ioos:station:SCCF:12:1,2008-09-11T03:00:00Z,26.4966,-82.1479,2.671,4.69,1111122 
SCCF RECON,ioos:station:SCCF:12:1,2008-09-11T04:00:00Z,26.4966,-82.1479,2.735,4.77,1111122 
SCCF RECON,ioos:station:SCCF:12:1,2008-09-11T05:00:00Z,26.4966,-82.1479,2.763,4.6,1111122 
SCCF RECON,ioos:station:SCCF:12:1,2008-09-11T06:00:00Z,26.4966,-82.1479,2.706,4.75,1111122 
SCCF RECON,ioos:station:SCCF:12:1,2008-09-11T07:00:00Z,26.4966,-82.1479,2.644,4.76,1111122 
SCCF RECON,ioos:station:SCCF:12:1,2008-09-11T08:00:00Z,26.4966,-82.1479,2.594,4.67,1111122 
SCCF RECON,ioos:station:SCCF:12:1,2008-09-11T09:00:00Z,26.4966,-82.1479,2.572,4.06,1111122 
SCCF RECON,ioos:station:SCCF:12:1,2008-09-11T10:00:00Z,26.4966,-82.1479,2.63,4.49,1111122 
SCCF RECON,ioos:station:SCCF:12:1,2008-09-11T11:00:00Z,26.4966,-82.1479,2.717,4.4,1111122 
SCCF RECON,ioos:station:SCCF:12:1,2008-09-11T12:00:00Z,26.4966,-82.1479,2.769,4.39,1111122 
SCCF RECON,ioos:station:SCCF:12:1,2008-09-11T13:00:00Z,26.4966,-82.1479,2.796,4.52,1111122 
SCCF RECON,ioos:station:SCCF:12:1,2008-09-11T14:00:00Z,26.4966,-82.1479,2.805,4.28,1111122 
SCCF RECON,ioos:station:SCCF:12:1,2008-09-11T15:00:00Z,26.4966,-82.1479,2.79,4.76,1111122 
SCCF RECON,ioos:station:SCCF:12:1,2008-09-11T16:00:00Z,26.4966,-82.1479,2.741,4.87,1111122 
SCCF RECON,ioos:station:SCCF:12:1,2008-09-11T17:00:00Z,26.4966,-82.1479,2.652,4.87,1111122 
SCCF RECON,ioos:station:SCCF:12:1,2008-09-11T18:00:00Z,26.4966,-82.1479,2.555,4.85,1111122 
SCCF RECON,ioos:station:SCCF:12:1,2008-09-11T19:00:00Z,26.4966,-82.1479,2.429,4.81,1111122 